Погода в Хоронхое

Россия / Республика Бурятия     50°28′26″N   106°08′53″E
темп.,
°C
ветер,
м/с
пор.,
м/с
влажн.,
%
обл.,
%
осадки,
мм/ч
давл.,
гПа
погр.,
м
26 июня, вс
вс2623:00+17сз227397 0.0 100629
02:00+16ссз117881 0.0 100713
05:00+14сз228521 0.1 100814
08:00+20ссз35540 0.1 1009524
11:00+24с33375 0.0 10081623
14:00+26с23310 0.0 10062099
17:00+27сз23290 0.0 10052367
20:00+25с124134 0.0 100514
27 июня, пн
пн2723:00+19ююв11491 0.0 100611
02:00+17ю22545 0.0 100611
05:00+16ююз22615 0.0 100711
08:00+22ююз22455 0.0 1006353
11:00+27зюз22355 0.0 1005992
14:00+31зсз23274 0.0 10032085
17:00+32ссз11240 0.0 10012125
20:00+29вюв22354 0.0 100019
28 июня, вт
вт2823:00+22ююз114825 0.1 100211
02:00+19юз11641 0.4 100211
05:00+17юз11744 0.0 100211
08:00+24ююз125253 0.0 1002336
11:00+29ююз333381 0.0 10001078
14:00+32зюз3228100 0.0 9991677
17:00+33з1123100 0.0 9971897
20:00+29св113580 0.0 99711
29 июня, ср
ср2923:00+23ююв11435 0.0 99911
02:00+21ююв22475 0.0 99912
05:00+20в225431 0.0 100011
08:00+25св11425 0.0 1001350
11:00+31вюв123163 0.0 9991121
14:00+35ю22235 0.0 9972553
17:00+35ююв23190 0.0 9943160
20:00+32всв232927 0.0 99548
30 июня, чт
чт3023:00+18ссв61480100 0.0 1002495
02:00+17ссв3978100 0.0 1004442
05:00+15сз2487100 0.2 1005166
08:00+17ссз2478100 0.3 1006518
11:00+22ссв335787 0.1 1005953
14:00+26с334588 0.1 10031488
17:00+28с33425 0.0 10021643
20:00+26всв234998 0.0 100183